Starlink 32007

operational
NORAD ID: 60094 Int'l Des: 2024-117 Owner: SPXS Country: US Constellation: starlink
LEOCIRCULAR

About Starlink 32007

Description loading...

Live Position

Loading 3D Globe...

Upcoming Passes

Altitude History

Altitude vs Time

uPlot chart will show altitude changes over time

Two-Line Element Set

1 60094U 24117D 25303.24912030 -.00005468 00000-0 -17253-3 0 9994
2 60094 53.1605 283.1368 0000982 107.8905 252.2203 15.30218107 76918
Epoch: Oct 30, 2025 • Age: 11 hours

Current Status

Altitude 479.3 km
Velocity 7.63 km/s
Sub-Earth Point 44.59°N, 30.69°E
Launch Date Jun 23, 2024
Age 1.3 years
Type internet

Technical Details

Classification Payload
Mass 730.00 kg
Dry Mass 700.00 kg
Total Mass 730.00 kg
Length 0.30 m
Diameter 4.10 m
Span 29.00 m
Shape Box + pan
Manufacturer SPXS
Bus Type Starlink V2M
Phase Status In Orbit
Owner/State SPXS/US

Large Constellations

Loading constellations...